Date_and_time,latitude,longitude,wind_speed,RelWindDirFrom,WindDirFrom,air_pressure,air_temperature,relative_humidity,Temp,platform_speed_wrt_ground,air_pressure_at_mean_sea_level,platform_orientation
2018-09-06 23:50,50.6304516666667,-96.980785,12.4,18.0,29,998.38,19.8,63,17.85,0.0,1024.54,270.0
2018-09-07 00:00,50.630425,-96.9807783333333,14.0,15.9,34,998.44,19.1,63,17.99,0.0,1024.65,228.4
2018-09-07 00:10,50.6304416666667,-96.9807883333333,13.8,15.7,31,998.46,19.0,60,18.07,0.0,1024.70,228.4
2018-09-07 00:20,50.630445,-96.9807833333333,13.7,16.4,26,998.55,18.5,70,18.16,0.0,1024.80,228.4
2018-09-07 00:30,50.630445,-96.9807816666667,15.7,18.8,27,998.52,18.1,72,18.12,0.0,1024.76,228.4
2018-09-07 00:40,50.630445,-96.9807766666667,16.3,19.3,25,998.58,17.9,67,18.16,0.0,1024.83,228.4
2018-09-07 00:50,50.630445,-96.9807766666667,17.0,19.6,24,998.59,17.8,65,18.21,0.0,1024.86,228.4
2018-09-07 01:00,50.630445,-96.9807766666667,17.1,19.5,20,998.60,17.8,64,18.24,0.0,1024.86,270.0
2018-09-07 01:10,50.630445,-96.980775,17.1,19.0,15,998.62,17.8,63,18.24,0.0,1024.91,270.0
2018-09-07 01:20,50.63044,-96.980775,16.3,19.4,17,998.69,17.7,65,18.19,0.0,1024.97,270.0
2018-09-07 01:30,50.63044,-96.980765,16.3,19.2,15,998.77,17.6,62,18.12,0.0,1025.06,270.0
2018-09-07 01:40,50.6304416666667,-96.9807616666667,16.2,18.2,16,998.89,17.5,61,18.06,0.0,1025.24,270.0
2018-09-07 01:50,50.6304416666667,-96.9807633333333,16.1,19.5,14,998.98,17.3,62,17.98,0.0,1025.38,270.0
2018-09-07 02:00,50.6304416666667,-96.9807633333333,18.0,21.1,16,998.94,17.1,59,17.91,0.0,1025.35,0.0
2018-09-07 02:10,50.6304366666667,-96.9807833333333,19.2,21.9,13,998.95,17.0,58,17.81,0.0,1025.38,0.0
2018-09-07 02:20,50.6304366666667,-96.9807766666667,18.2,21.9,11,999.06,17.0,60,17.77,0.0,1025.52,0.0
2018-09-07 02:30,50.630435,-96.9807716666667,18.1,21.2,8,999.17,16.9,58,17.76,0.0,1025.64,0.0
2018-09-07 02:40,50.6304366666667,-96.98077,18.7,21.9,7,999.27,16.8,58,17.75,0.0,1025.76,0.0
2018-09-07 02:50,50.6304366666667,-96.9807666666667,18.8,23.0,3,999.33,16.6,59,17.72,0.0,1025.83,0.0
2018-09-07 03:00,50.6304366666667,-96.9807666666667,20.3,23.7,5,999.32,16.4,61,17.71,0.0,1025.83,55.2
2018-09-07 03:10,50.6304383333333,-96.9807666666667,20.4,24.8,4,999.44,16.1,65,17.68,0.0,1025.97,55.2
2018-09-07 03:20,50.63044,-96.9807666666667,19.1,23.4,6,999.60,15.9,68,17.66,0.0,1026.15,55.2
2018-09-07 03:30,50.63044,-96.9807666666667,19.6,23.7,8,999.65,15.8,69,17.65,0.0,1026.21,55.2
2018-09-07 03:40,50.63044,-96.9807666666667,20.5,24.6,10,999.73,15.7,69,17.64,0.0,1026.30,55.2
2018-09-07 03:50,50.63044,-96.9807683333333,20.5,23.8,14,999.78,15.9,67,17.63,0.0,1026.36,55.2
2018-09-07 04:00,50.63044,-96.9807683333333,21.3,24.3,18,999.84,15.9,63,17.63,0.0,1026.42,90.0
2018-09-07 04:10,50.63044,-96.9807683333333,20.9,24.6,17,999.95,15.8,63,17.63,0.0,1026.54,90.0
2018-09-07 04:20,50.6304283333333,-96.9807583333333,21.4,25.1,15,1000.06,15.7,64,17.62,0.0,1026.66,90.0
2018-09-07 04:30,50.6304366666667,-96.980765,20.9,24.1,14,1000.17,15.6,66,17.62,0.0,1026.79,90.0
2018-09-07 04:40,50.6304383333333,-96.9807716666667,19.1,23.8,15,1000.30,15.5,67,17.59,0.0,1026.93,90.0
2018-09-07 04:50,50.63044,-96.9807733333333,19.7,23.4,15,1000.37,15.5,65,17.58,0.0,1027.01,90.0
2018-09-07 05:00,50.6304383333333,-96.9807733333333,18.8,22.9,14,1000.59,15.4,63,17.58,0.0,1027.26,270.0
2018-09-07 05:10,50.6304383333333,-96.980775,13.7,17.5,14,1001.28,15.4,60,17.55,0.0,1027.98,270.0
2018-09-07 05:20,50.630435,-96.9807733333333,14.3,17.0,8,1001.30,15.3,58,17.55,0.0,1028.00,270.0
2018-09-07 05:30,50.6304333333333,-96.9807783333333,14.2,17.4,10,1001.35,15.3,54,17.55,0.0,1028.05,270.0
2018-09-07 05:40,50.630435,-96.9807733333333,15.1,19.0,15,1001.27,15.3,51,17.55,0.0,1027.97,270.0
2018-09-07 05:50,50.6304366666667,-96.9807766666667,13.6,16.8,18,1001.40,15.4,50,17.54,0.0,1028.10,270.0
2018-09-07 06:00,50.6304366666667,-96.9807733333333,14.8,17.4,19,1001.38,15.4,46,17.54,0.0,1028.08,270.0
2018-09-07 06:10,50.6304383333333,-96.9807833333333,13.2,18.5,21,1001.55,15.5,46,17.54,0.0,1028.26,270.0
2018-09-07 06:20,50.6304416666667,-96.9807783333333,14.3,17.4,22,1001.57,15.5,40,17.51,0.0,1028.28,270.0
2018-09-07 06:30,50.6304366666667,-96.9807716666667,14.4,17.6,17,1001.70,15.5,43,17.49,0.0,1028.42,270.0
2018-09-07 06:40,50.6304316666667,-96.980765,15.2,18.9,21,1001.65,15.3,49,17.49,0.0,1028.38,270.0
2018-09-07 06:50,50.6304316666667,-96.9807683333333,14.3,18.0,20,1001.70,14.9,53,17.50,0.0,1028.45,270.0
2018-09-07 07:00,50.6304283333333,-96.9807966666667,14.2,17.9,21,1001.76,14.5,55,17.49,0.0,1028.53,230.9
2018-09-07 07:10,50.6304333333333,-96.9807783333333,14.7,17.9,22,1001.76,14.5,55,17.48,0.0,1028.54,230.9
2018-09-07 07:20,50.6304366666667,-96.9807633333333,14.9,17.9,38,1001.79,14.6,54,17.49,0.0,1028.56,230.9
2018-09-07 07:30,50.6304366666667,-96.9807866666667,14.7,18.0,41,1001.88,14.4,52,17.50,0.0,1028.66,230.9
2018-09-07 07:40,50.6304316666667,-96.9807783333333,14.6,18.0,37,1001.92,14.2,55,17.50,0.0,1028.71,230.9
2018-09-07 07:50,50.6304283333333,-96.9807783333333,14.3,16.8,43,1001.95,14.2,56,17.50,0.0,1028.74,230.9
2018-09-07 08:00,50.63046,-96.9807916666667,14.3,16.8,39,1001.94,14.1,54,17.50,0.0,1028.74,318.8
2018-09-07 08:10,50.6304333333333,-96.9807766666667,13.2,16.4,40,1002.03,14.1,60,17.48,0.0,1028.82,318.8
2018-09-07 08:20,50.630435,-96.980775,14.1,16.8,50,1002.03,14.0,56,17.47,0.0,1028.83,318.8
2018-09-07 08:30,50.630435,-96.98078,14.0,16.5,44,1002.04,13.8,57,17.47,0.0,1028.85,318.8
2018-09-07 08:40,50.6304366666667,-96.9807783333333,13.6,15.9,48,1002.07,13.8,57,17.47,0.0,1028.90,318.8
2018-09-07 08:50,50.6304366666667,-96.9807783333333,13.9,16.3,50,1002.02,13.7,57,17.45,0.0,1028.88,318.8
2018-09-07 09:00,50.6304366666667,-96.98078,14.3,16.8,50,1001.96,13.6,58,17.45,0.0,1028.82,270.0
2018-09-07 09:10,50.6304366666667,-96.98078,14.1,17.4,51,1002.00,13.5,58,17.46,0.0,1028.86,270.0
2018-09-07 09:20,50.6304316666667,-96.98078,13.5,15.6,54,1002.10,13.5,60,17.45,0.0,1028.97,270.0
2018-09-07 09:30,50.63044,-96.9807783333333,13.3,16.7,54,1002.04,13.4,59,17.46,0.0,1028.92,270.0
2018-09-07 09:40,50.6304383333333,-96.9807716666667,13.3,16.5,57,1002.06,13.3,57,17.47,0.0,1028.95,270.0
2018-09-07 09:50,50.6304383333333,-96.9807733333333,13.0,15.7,53,1002.07,13.3,60,17.46,0.0,1028.97,270.0
2018-09-07 10:00,50.6304366666667,-96.980775,13.5,16.6,54,1002.07,13.3,61,17.44,0.0,1028.97,57.7
2018-09-07 10:10,50.6304366666667,-96.980775,14.2,17.9,56,1002.09,13.2,61,17.43,0.0,1029.00,57.7
2018-09-07 10:20,50.630435,-96.980775,15.2,19.9,59,1002.13,13.3,61,17.42,0.0,1029.05,57.7
2018-09-07 10:30,50.6304333333333,-96.9807766666667,15.6,18.4,63,1002.22,13.3,60,17.42,0.0,1029.14,57.7
2018-09-07 10:40,50.6304333333333,-96.9807783333333,15.9,18.1,64,1002.28,13.1,60,17.39,0.0,1029.21,57.7
2018-09-07 10:50,50.6304333333333,-96.9807783333333,15.6,18.7,65,1002.32,13.0,60,17.38,0.0,1029.26,57.7
2018-09-07 11:00,50.6304333333333,-96.98078,15.4,18.7,63,1002.34,12.9,61,17.36,0.0,1029.30,166.7
2018-09-07 11:10,50.6304333333333,-96.98078,15.7,19.0,67,1002.43,12.9,62,17.35,0.0,1029.38,166.7
2018-09-07 11:20,50.6304333333333,-96.98078,16.6,19.3,72,1002.46,13.0,62,17.33,0.0,1029.41,166.7
2018-09-07 11:30,50.6304316666667,-96.98078,16.8,20.3,71,1002.48,12.8,62,17.27,0.0,1029.45,166.7
2018-09-07 11:40,50.6304333333333,-96.9807733333333,17.7,21.6,71,1002.51,12.7,63,17.24,0.0,1029.49,166.7
2018-09-07 11:50,50.630435,-96.9807716666667,18.0,20.8,72,1002.52,12.6,62,17.22,0.0,1029.50,166.7
2018-09-07 12:00,50.630435,-96.98077,18.4,21.6,72,1002.58,12.5,62,17.20,0.0,1029.57,90.0
2018-09-07 12:10,50.630435,-96.98077,17.8,21.0,74,1002.64,12.4,63,17.19,0.0,1029.63,90.0
2018-09-07 12:20,50.6304316666667,-96.98076,17.9,21.0,72,1002.66,12.5,63,17.18,0.0,1029.66,90.0
2018-09-07 12:30,50.630435,-96.9807666666667,18.4,20.8,72,1002.68,12.4,64,17.14,0.0,1029.69,90.0
2018-09-07 12:40,50.6304366666667,-96.9807683333333,17.6,21.3,76,1002.80,12.3,63,17.13,0.0,1029.82,90.0
2018-09-07 12:50,50.6304383333333,-96.98077,17.9,21.6,76,1002.83,12.3,64,17.11,0.0,1029.85,90.0
2018-09-07 13:00,50.63044,-96.9807683333333,17.8,21.6,76,1002.84,12.2,63,17.08,0.0,1029.86,12.6
2018-09-07 13:10,50.63044,-96.9807683333333,17.8,20.9,74,1002.83,12.2,65,17.10,0.0,1029.85,12.6
2018-09-07 13:20,50.63044,-96.9807683333333,17.9,20.7,76,1002.88,12.2,64,17.08,0.0,1029.91,12.6
2018-09-07 13:30,50.6304483333333,-96.9808116666667,17.2,20.8,77,1002.86,12.2,65,17.07,0.0,1029.90,12.6
2018-09-07 13:40,50.6304416666667,-96.9807783333333,17.1,20.4,77,1002.86,12.2,65,17.06,0.0,1029.91,12.6
2018-09-07 13:50,50.6304416666667,-96.980775,16.4,19.6,76,1002.92,12.1,66,17.04,0.0,1029.97,12.6
2018-09-07 14:00,50.63044,-96.980775,16.2,19.9,79,1003.00,12.2,64,17.03,0.0,1030.05,36.6
2018-09-07 14:10,50.6304233333333,-96.9807616666667,15.8,20.2,79,1003.02,12.3,64,17.03,0.0,1030.06,36.6
2018-09-07 14:20,50.630445,-96.9807716666667,15.2,18.1,76,1003.04,12.4,64,17.02,0.0,1030.09,36.6
2018-09-07 14:30,50.6304416666667,-96.9807833333333,15.2,19.8,79,1003.07,12.3,63,17.01,0.0,1030.13,36.6
2018-09-07 14:40,50.6304366666667,-96.98077,13.2,16.1,78,1003.14,12.5,64,16.99,0.0,1030.20,36.6
2018-09-07 14:50,50.6304383333333,-96.980775,12.7,16.2,81,1003.21,12.5,63,16.99,0.0,1030.27,36.6
2018-09-07 15:00,50.6304383333333,-96.9807733333333,11.9,15.4,82,1003.24,12.7,63,16.99,0.0,1030.29,347.4
2018-09-07 15:10,50.63044,-96.9807733333333,11.7,14.5,78,1003.26,12.7,62,16.99,0.0,1030.31,347.4
2018-09-07 15:20,50.63044,-96.980775,11.8,14.1,74,1003.30,12.7,62,16.99,0.0,1030.36,347.4
2018-09-07 15:30,50.6304316666667,-96.980785,11.3,14.1,76,1003.34,12.8,61,17.01,0.0,1030.39,347.4
2018-09-07 15:40,50.63043,-96.980775,10.8,12.9,71,1003.33,12.9,61,17.02,0.0,1030.37,347.4
2018-09-07 15:50,50.6304283333333,-96.9807716666667,10.4,13.0,61,1003.32,12.9,63,17.05,0.0,1030.36,347.4
2018-09-07 16:00,50.63043,-96.98077,9.9,12.1,66,1003.28,13.1,60,17.05,0.0,1030.30,360.0
2018-09-07 16:10,50.63043,-96.9807716666667,9.6,11.7,62,1003.26,13.1,61,17.05,0.0,1030.28,360.0
2018-09-07 16:20,50.6304266666667,-96.980785,9.0,11.3,60,1003.24,13.2,62,17.05,0.0,1030.26,360.0
2018-09-07 16:30,50.6304516666667,-96.9808,9.5,11.5,66,1003.16,13.4,61,17.07,0.0,1030.16,360.0
2018-09-07 16:40,50.6304466666667,-96.9807883333333,9.9,13.4,62,1003.11,13.7,61,17.07,0.0,1030.10,360.0
2018-09-07 16:50,50.6304433333333,-96.9807833333333,10.9,13.4,62,1003.04,13.8,60,17.06,0.0,1030.01,360.0
2018-09-07 17:00,50.6304416666667,-96.980785,11.5,13.7,57,1002.96,13.9,59,17.07,0.0,1029.92,270.0
2018-09-07 17:10,50.6304416666667,-96.980785,11.7,13.9,52,1002.94,14.0,58,17.05,0.0,1029.90,270.0
2018-09-07 17:20,50.630455,-96.9807816666667,11.9,13.6,54,1002.93,14.2,58,17.04,0.0,1029.87,270.0
2018-09-07 17:30,50.6304516666667,-96.98078,11.7,13.2,56,1002.88,14.3,56,17.04,0.0,1029.82,270.0
2018-09-07 17:40,50.6304416666667,-96.980785,11.8,13.9,54,1002.86,14.4,55,17.06,0.0,1029.79,270.0
2018-09-07 17:50,50.6304383333333,-96.98078,11.2,13.8,51,1002.88,14.5,56,17.07,0.0,1029.79,270.0
2018-09-07 18:00,50.63044,-96.980775,10.5,12.8,54,1002.88,14.6,56,17.06,0.0,1029.78,0.0
2018-09-07 18:10,50.630435,-96.9807833333333,11.0,13.0,52,1002.72,14.7,56,17.05,0.0,1029.61,0.0
2018-09-07 18:20,50.6304366666667,-96.9807816666667,10.7,13.5,48,1002.57,14.8,55,17.07,0.0,1029.44,0.0
2018-09-07 18:30,50.630435,-96.9807783333333,11.0,13.9,47,1002.50,14.9,55,17.06,0.0,1029.36,0.0
2018-09-07 18:40,50.6304333333333,-96.9807766666667,11.3,13.8,48,1002.33,15.0,55,17.02,0.0,1029.16,0.0
2018-09-07 18:50,50.6304083333333,-96.980795,11.5,13.6,50,1002.23,15.2,53,17.02,0.0,1029.06,0.0
2018-09-07 19:00,50.630425,-96.9807866666667,10.5,12.3,52,1002.32,15.3,52,17.05,0.0,1029.14,270.0
2018-09-07 19:10,50.6304266666667,-96.9807783333333,10.9,14.1,44,1002.26,15.5,52,17.05,0.0,1029.06,270.0
2018-09-07 19:20,50.630425,-96.980785,11.5,13.4,38,1002.17,15.6,53,17.02,0.0,1028.95,270.0
2018-09-07 19:30,50.6304266666667,-96.9807833333333,12.2,14.8,40,1002.03,15.7,53,17.03,0.0,1028.80,270.0
2018-09-07 19:40,50.6304283333333,-96.9807816666667,12.2,14.1,35,1001.96,15.9,51,17.07,0.0,1028.71,270.0
2018-09-07 19:50,50.63043,-96.9807816666667,12.2,14.5,39,1001.80,16.0,51,17.10,0.0,1028.54,270.0
2018-09-07 20:00,50.6304333333333,-96.9807916666667,12.8,14.5,32,1001.68,16.1,51,17.15,0.0,1028.41,221.3
2018-09-07 20:10,50.630435,-96.9807883333333,12.8,15.5,34,1001.58,16.2,51,17.09,0.0,1028.29,221.3
2018-09-07 20:20,50.630435,-96.9807866666667,13.5,15.4,32,1001.50,16.3,50,17.05,0.0,1028.20,221.3
2018-09-07 20:30,50.630435,-96.9807833333333,12.8,15.0,34,1001.47,16.4,50,17.05,0.0,1028.17,221.3
2018-09-07 20:40,50.6304333333333,-96.98078,12.3,14.6,36,1001.49,16.5,49,17.05,0.0,1028.17,221.3
2018-09-07 20:50,50.6304383333333,-96.9807716666667,11.8,13.9,42,1001.51,16.7,49,17.10,0.0,1028.18,221.3
2018-09-07 21:00,50.6304383333333,-96.98078,11.3,13.2,44,1001.44,16.8,48,17.24,0.0,1028.09,270.0
2018-09-07 21:10,50.6304416666667,-96.9807733333333,11.6,14.0,41,1001.35,16.9,48,17.28,0.0,1027.99,270.0
2018-09-07 21:20,50.6304416666667,-96.9807716666667,11.2,13.2,40,1001.27,17.0,47,17.29,0.0,1027.90,270.0
2018-09-07 21:30,50.6304383333333,-96.9807683333333,11.3,13.9,43,1001.18,17.1,48,17.29,0.0,1027.79,270.0
2018-09-07 21:40,50.6304383333333,-96.9807683333333,11.6,13.7,34,1001.07,17.1,49,17.28,0.0,1027.67,270.0
2018-09-07 21:50,50.6304366666667,-96.98077,11.5,13.4,31,1000.97,17.2,50,17.24,0.0,1027.57,270.0
2018-09-07 22:00,50.630435,-96.9807733333333,12.5,14.9,29,1000.88,17.3,49,17.18,0.0,1027.46,55.2
2018-09-07 22:10,50.630435,-96.9807883333333,13.3,15.8,27,1000.73,17.3,50,17.16,0.0,1027.30,55.2
2018-09-07 22:20,50.6304333333333,-96.9808016666667,12.9,15.3,31,1000.64,17.5,49,17.16,0.0,1027.20,55.2
2018-09-07 22:30,50.6304316666667,-96.9807716666667,11.3,13.1,31,1000.73,17.5,50,17.16,0.0,1027.28,55.2
2018-09-07 22:40,50.63043,-96.9807733333333,11.9,13.4,33,1000.56,17.6,48,17.15,0.0,1027.10,55.2
2018-09-07 22:50,50.6304316666667,-96.980775,12.4,14.1,33,1000.40,17.7,49,17.17,0.0,1026.92,55.2
2018-09-07 23:00,50.63043,-96.9807766666667,12.0,14.0,34,1000.36,17.8,51,17.22,0.0,1026.87,113.6
2018-09-07 23:10,50.63043,-96.9807783333333,12.5,14.4,35,1000.26,17.8,50,17.25,0.0,1026.76,113.6
2018-09-07 23:20,50.6303966666667,-96.9807683333333,12.7,15.3,36,1000.12,17.9,51,17.24,0.0,1026.62,113.6
